When you browse on this site, cookies collect data to enhance your experience and personalize the content and advertising you see.
Visit our Privacy Policy to learn more. By continuing to use the site, you agree to this use of cookies and data.
  • In Lithuania
  • List of Countries
  • For 7 days
  • Water Temperature
  • Weather Map
  • Weather Widgets
  • user-avatar
    Login

    Hourly Weather Townsville

    Today, 15 October, Tuesday

    Time Temperature Precipitation Wind Pressure Humidity
    00:00 +22°C° 0 mm 3 mps 754 mmHg 84%
    01:00 +22°C° 0 mm 3 mps 754 mmHg 84%
    02:00 +21°C° 0 mm 3 mps 754 mmHg 85%
    03:00 +21°C° 0 mm 3 mps 754 mmHg 86%
    04:00 +21°C° 0 mm 3 mps 754 mmHg 88%
    05:00 +22°C° 0 mm 4 mps 754 mmHg 84%
    06:00 +23°C° 0 mm 4 mps 754 mmHg 79%
    07:00 +25°C° 0 mm 4 mps 754 mmHg 75%
    08:00 +26°C° 0 mm 4 mps 754 mmHg 67%
    09:00 +28°C° 0 mm 4 mps 755 mmHg 59%
    10:00 +30°C° 0 mm 4 mps 755 mmHg 49%
    11:00 +30°C° 0 mm 4 mps 754 mmHg 47%
    12:00 +32°C° 0 mm 4 mps 753 mmHg 44%
    13:00 +33°C° 0 mm 4 mps 752 mmHg 41%
    14:00 +32°C° 0 mm 4 mps 752 mmHg 44%
    15:00 +30°C° 0 mm 4 mps 751 mmHg 47%
    16:00 +30°C° 0 mm 4 mps 751 mmHg 50%
    17:00 +28°C° 0 mm 3 mps 751 mmHg 60%
    18:00 +26°C° 0 mm 3 mps 752 mmHg 70%
    19:00 +24°C° 0 mm 3 mps 752 mmHg 80%
    20:00 +22°C° 0 mm 3 mps 752 mmHg 82%
    21:00 +22°C° 0 mm 3 mps 753 mmHg 85%
    22:00 +22°C° 0 mm 3 mps 753 mmHg 88%
    23:00 +21°C° 0 mm 3 mps 753 mmHg 89%

    Tomorrow, 16 October, Wednesday

    Time Temperature Precipitation Wind Pressure Humidity
    00:00 +21°C° 0 mm 3 mps 753 mmHg 90%
    01:00 +21°C° 0 mm 3 mps 752 mmHg 91%
    02:00 +21°C° 0 mm 3 mps 752 mmHg 91%
    03:00 +21°C° 0 mm 3 mps 752 mmHg 92%
    04:00 +21°C° 0 mm 3 mps 752 mmHg 93%
    05:00 +22°C° 0 mm 3 mps 753 mmHg 89%
    06:00 +22°C° 0 mm 3 mps 753 mmHg 85%
    07:00 +24°C° 0 mm 3 mps 753 mmHg 81%
    08:00 +26°C° 0 mm 3 mps 754 mmHg 70%
    09:00 +28°C° 0 mm 3 mps 754 mmHg 60%
    10:00 +32°C° 0 mm 4 mps 754 mmHg 49%
    11:00 +32°C° 0 mm 4 mps 753 mmHg 48%
    12:00 +32°C° 0 mm 4 mps 752 mmHg 48%
    13:00 +33°C° 0 mm 4 mps 752 mmHg 47%
    14:00 +32°C° 0 mm 4 mps 752 mmHg 51%
    15:00 +30°C° 0 mm 4 mps 751 mmHg 56%
    16:00 +29°C° 0 mm 4 mps 751 mmHg 60%
    17:00 +27°C° 0 mm 4 mps 752 mmHg 69%
    18:00 +26°C° 0 mm 4 mps 752 mmHg 78%
    19:00 +23°C° 0 mm 4 mps 753 mmHg 87%
    20:00 +23°C° 0 mm 4 mps 753 mmHg 88%
    21:00 +23°C° 0 mm 4 mps 754 mmHg 88%
    22:00 +23°C° 0 mm 4 mps 754 mmHg 89%
    23:00 +23°C° 0 mm 4 mps 754 mmHg 89%

    Day after tomorrow, 17 October, Thursday

    Time Temperature Precipitation Wind Pressure Humidity
    00:00 +23°C° 0 mm 4 mps 753 mmHg 88%
    01:00 +23°C° 0 mm 4 mps 753 mmHg 88%
    02:00 +23°C° 0 mm 4 mps 753 mmHg 86%
    03:00 +23°C° 0 mm 4 mps 753 mmHg 85%
    04:00 +25°C° 0 mm 4 mps 753 mmHg 83%
    05:00 +25°C° 0 mm 5 mps 753 mmHg 80%
    06:00 +26°C° 0 mm 5 mps 754 mmHg 77%
    07:00 +26°C° 0 mm 5 mps 754 mmHg 73%
    08:00 +27°C° 0 mm 5 mps 754 mmHg 70%
    09:00 +28°C° 0 mm 5 mps 755 mmHg 66%
    10:00 +29°C° 0 mm 5 mps 755 mmHg 62%
    11:00 +29°C° 0 mm 5 mps 754 mmHg 60%
    12:00 +30°C° 0 mm 5 mps 754 mmHg 58%
    13:00 +30°C° 0 mm 5 mps 753 mmHg 56%
    14:00 +30°C° 0 mm 5 mps 753 mmHg 58%
    15:00 +29°C° 0 mm 5 mps 752 mmHg 60%
    16:00 +29°C° 0 mm 5 mps 752 mmHg 63%
    17:00 +27°C° 0 mm 4 mps 753 mmHg 70%
    18:00 +26°C° 0 mm 4 mps 753 mmHg 77%
    19:00 +25°C° 0 mm 4 mps 753 mmHg 84%
    20:00 +23°C° 0 mm 4 mps 754 mmHg 86%
    21:00 +23°C° 0 mm 4 mps 754 mmHg 87%
    22:00 +23°C° 0 mm 4 mps 754 mmHg 89%
    23:00 +23°C° 0 mm 4 mps 754 mmHg 89%

    18 October, Friday

    Time Temperature Precipitation Wind Pressure Humidity
    00:00 +23°C° 0 mm 4 mps 754 mmHg 89%
    01:00 +24°C° 0 mm 3 mps 753 mmHg 88%
    02:00 +24°C° 0 mm 3 mps 754 mmHg 89%
    03:00 +24°C° 0 mm 2 mps 754 mmHg 90%
    04:00 +24°C° 0 mm 2 mps 754 mmHg 90%
    05:00 +24°C° 0 mm 2 mps 755 mmHg 85%
    06:00 +25°C° 0 mm 3 mps 755 mmHg 80%
    07:00 +26°C° 0 mm 3 mps 756 mmHg 75%
    08:00 +27°C° 0 mm 3 mps 756 mmHg 69%
    09:00 +28°C° 0 mm 4 mps 756 mmHg 62%
    10:00 +30°C° 0 mm 4 mps 756 mmHg 56%
    11:00 +30°C° 0 mm 4 mps 756 mmHg 54%
    12:00 +32°C° 0 mm 4 mps 755 mmHg 51%
    13:00 +32°C° 0 mm 4 mps 754 mmHg 49%
    14:00 +32°C° 0 mm 4 mps 754 mmHg 51%
    15:00 +30°C° 0 mm 4 mps 753 mmHg 52%
    16:00 +30°C° 0 mm 3 mps 753 mmHg 54%
    17:00 +28°C° 0 mm 3 mps 753 mmHg 62%
    18:00 +26°C° 0 mm 3 mps 754 mmHg 71%
    19:00 +24°C° 0 mm 2 mps 754 mmHg 80%
    20:00 +24°C° 0 mm 2 mps 755 mmHg 83%
    21:00 +24°C° 0 mm 3 mps 755 mmHg 85%
    22:00 +24°C° 0 mm 3 mps 756 mmHg 87%
    23:00 +22°C° 0 mm 3 mps 755 mmHg 89%

    19 October, Saturday

    Time Temperature Precipitation Wind Pressure Humidity
    00:00 +22°C° 0 mm 3 mps 755 mmHg 90%
    01:00 +23°C° 0 mm 2 mps 754 mmHg 91%
    02:00 +23°C° 0 mm 2 mps 754 mmHg 91%
    03:00 +23°C° 0 mm 2 mps 754 mmHg 91%
    04:00 +23°C° 0 mm 2 mps 755 mmHg 90%
    05:00 +24°C° 0 mm 2 mps 755 mmHg 85%
    06:00 +25°C° 0 mm 1 mps 756 mmHg 81%
    07:00 +23°C° 0 mm 0 mps 756 mmHg 76%
    08:00 +28°C° 0 mm 1 mps 756 mmHg 66%
    09:00 +30°C° 0 mm 2 mps 756 mmHg 55%
    10:00 +32°C° 0 mm 2 mps 756 mmHg 45%
    11:00 +33°C° 0 mm 3 mps 756 mmHg 44%
    12:00 +34°C° 0 mm 3 mps 755 mmHg 44%
    13:00 +34°C° 0 mm 4 mps 754 mmHg 44%
    14:00 +33°C° 0 mm 4 mps 754 mmHg 47%
    15:00 +32°C° 0 mm 4 mps 753 mmHg 50%
    16:00 +30°C° 0 mm 4 mps 753 mmHg 53%
    17:00 +28°C° 0 mm 4 mps 753 mmHg 63%
    18:00 +26°C° 0 mm 3 mps 753 mmHg 72%
    19:00 +24°C° 0 mm 3 mps 754 mmHg 82%
    20:00 +24°C° 0 mm 3 mps 754 mmHg 85%
    21:00 +23°C° 0 mm 2 mps 755 mmHg 88%
    22:00 +23°C° 0 mm 2 mps 755 mmHg 91%
    23:00 +23°C° 0 mm 2 mps 755 mmHg 91%

    20 October, Sunday

    Time Temperature Precipitation Wind Pressure Humidity
    00:00 +23°C° 0 mm 2 mps 755 mmHg 92%
    01:00 +23°C° 0 mm 1 mps 755 mmHg 92%
    02:00 +23°C° 0 mm 1 mps 755 mmHg 91%
    03:00 +23°C° 0 mm 1 mps 755 mmHg 90%
    04:00 +23°C° 0 mm 1 mps 755 mmHg 89%
    05:00 +23°C° 0 mm 1 mps 755 mmHg 86%
    06:00 +22°C° 0 mm 0 mps 755 mmHg 83%
    07:00 +23°C° 0 mm 0 mps 756 mmHg 79%
    08:00 +27°C° 0 mm 1 mps 756 mmHg 69%
    09:00 +29°C° 0 mm 2 mps 756 mmHg 60%
    10:00 +31°C° 0 mm 3 mps 756 mmHg 50%
    11:00 +31°C° 0 mm 3 mps 755 mmHg 50%
    12:00 +32°C° 0 mm 4 mps 755 mmHg 51%
    13:00 +32°C° 0 mm 4 mps 754 mmHg 51%
    14:00 +30°C° 0 mm 5 mps 754 mmHg 54%
    15:00 +29°C° 0 mm 5 mps 753 mmHg 57%
    16:00 +29°C° 0 mm 5 mps 753 mmHg 60%
    17:00 +27°C° 0 mm 4 mps 754 mmHg 67%
    18:00 +26°C° 0 mm 4 mps 754 mmHg 75%
    19:00 +24°C° 0 mm 3 mps 755 mmHg 83%
    20:00 +24°C° 0 mm 3 mps 755 mmHg 84%
    21:00 +24°C° 0 mm 3 mps 755 mmHg 85%
    22:00 +24°C° 0 mm 3 mps 756 mmHg 86%
    23:00 +24°C° 0 mm 3 mps 756 mmHg 85%
    Show more